Location: Azul
(36.7830°S, 59.8500°W)
Time: 09:43:02
(UTC-03:00)

ISS - Visible Passes

Search period start: 05 December 2023 00:00
Search period end: 15 December 2023 00:00
Orbit: 415 x 417 km, 51.6° (Epoch: 05 December)

Date Brightness Start Highest point End Pass type
(mag) Time Alt. Az. Time Alt. Az. Time Alt. Az.
05 Dec -0.4 00:56:34 12° SSE 00:56:34 12° SSE 00:56:58 10° SSE visible
06 Dec -0.4 01:42:10 10° SSW 01:42:48 10° SSW 01:43:26 10° S visible
06 Dec -0.6 04:56:58 10° SSW 04:58:57 15° SSE 05:00:57 10° ESE visible
07 Dec -0.5 00:54:15 13° SSW 00:54:15 13° SSW 00:55:41 10° S visible
07 Dec -0.3 04:09:02 10° S 04:10:01 11° SSE 04:11:01 10° SE visible
08 Dec -0.7 00:06:01 16° S 00:06:01 16° S 00:07:25 10° SSE visible
08 Dec -1.4 04:55:36 10° SSW 04:58:37 28° SSE 05:01:36 10° E visible
08 Dec-0.521:43:38ESE21:43:38ESE21:34:14NNWvisible
08 Dec -1.6 23:16:08 28° SSW 23:16:08 28° SSW 23:18:58 10° SSE visible
09 Dec -0.7 04:07:07 10° SSW 04:09:39 19° SSE 04:12:11 10° ESE visible
09 Dec -2.1 20:48:29 10° NNE 20:50:36 16° NE 20:52:43 10° E visible
09 Dec -2.7 22:23:45 10° WNW 22:27:02 46° SW 22:30:20 10° SE visible
10 Dec -0.1 00:03:30 10° SW 00:04:26 11° SSW 00:05:23 10° S visible
10 Dec -0.4 03:18:44 10° S 03:20:34 14° SSE 03:22:25 10° SE visible
10 Dec -3.5 04:54:22 10° SW 04:57:47 77° SE 05:01:09 10° NE visible
10 Dec -3.8 21:34:43 10° NW 21:38:06 86° SW 21:41:32 10° SE visible
10 Dec -0.4 23:13:17 10° WSW 23:15:15 14° SSW 23:17:14 10° SSE visible
11 Dec 0.0 02:30:45 10° S 02:31:23 10° SSE 02:32:00 10° SSE visible
11 Dec -2.3 04:05:34 10° SW 04:08:50 42° SE 04:12:04 10° ENE visible
11 Dec -3.5 20:45:56 10° NNW 20:49:12 48° NE 20:52:30 10° ESE visible
11 Dec -0.9 22:23:28 10° W 22:26:05 20° SSW 22:28:43 10° SSE visible
12 Dec -1.4 03:16:49 10° SSW 03:19:45 26° SSE 03:22:40 10° E visible
12 Dec -3.0 04:53:24 10° WSW 04:56:28 32° NW 04:59:31 10° NNE visible
12 Dec -1.6 21:33:52 10° W 21:36:55 31° SSW 21:39:59 10° SSE visible
13 Dec -0.7 02:28:08 10° SSW 02:30:32 18° SSE 02:32:56 10° ESE visible
13 Dec -3.8 04:04:09 10° SW 04:07:32 63° NW 04:10:52 10° NE visible
13 Dec -2.8 20:44:27 10° WNW 20:47:45 52° SW 20:51:06 10° SE visible
13 Dec -0.2 22:23:53 10° SW 22:25:06 11° SSW 22:26:19 10° S visible
14 Dec -0.3 01:39:34 10° S 01:41:12 13° SSE 01:42:50 10° SE visible
14 Dec -3.5 03:15:04 10° SW 03:18:27 67° SE 03:21:49 10° ENE visible
14 Dec -1.7 04:53:54 10° WNW 04:54:42 11° NW 04:55:31 10° NW visible
14 Dec -0.5 21:33:34 10° WSW 21:35:41 15° SSW 21:37:50 10° SSE visible
